STARLINK-1363, 45568

Orbit data source: Space-Track

STARLINK-1363, 45568 is a payload satellite owned by SpaceX/Seattle (US) in LEO that was launched on Wed, 22 Apr 2020 UTC via an FALCON 9 launch vehicle from the Air Force Eastern Test Range (AFETR). Payload-class satellites include a variety of spacecraft equipped with specific instruments for various scientific and technological missions. These include communications satellites like Starlink; space stations such as the ISS; scientific satellites like the Hubble; Earth observation satellites from companies like Planet Labs, Umbra, and HawkEye 360; GPS; miniature CubeSats for education and research; and military/defense satellites.

Loading next visibility...
Identifier
45568, 2020-025AP
Orbit
LEO
Last TLE update
22 hours ago
Origin
Manufacturer
SpaceX/Seattle
Mission
Operational Commercial Communications
Bus & Motor
STARLINK, Unknown motor
Mass
260 kg wet, ~248 kg dry
Launch date (UTC)
2020-04-22 (5 years ago)
Launch vehicle
FALCON 9
Launch site
Air Force Eastern Test Range (AFETR)
Object type
Payload
Rocket body
Debris
Shape & HBR
Box + 1 Pan, 8.86 m
Radar Cross Section
13.562 m², Large (>1 m²)

Expand to show TLE details & history

TLE from 22 hours ago
0 STARLINK-1363
1 45568U 20025AP  25128.37837398 -.00002169  00000-0 -12677-3 0  9999
2 45568  53.0566  17.4555 0001631  90.0196 270.0979 15.06396342278749
Epoch: 2025-05-08T09:04Z
Definitive object data (Epoch: 2025-05-08T09:04:51.511Z)
Latitude
-0.00011°
Longitude
14.79106°
Altitude
548.1 km
Speed
7.589 km/s
True Right ascension
01h 09m 49s
True Declination
0° 00' 00"
Sunlit
Object was in daylight at TLE epoch
Visualization TLE readout
Latitude
-48.05619°
Longitude
-112.95506°
Altitude
564.731 km
Speed
7.578 km/s
Apparent Right ascension
22h 17m 57s
Apparent Declination
-77° 36' 07"
Sunlit
Object is in full shadow
Visualization observer readout
Local Sidereal Time
15:01:35
Azimuth
163.924° S
Elevation
-42.887°
Doppler factor
1
Orbital elements
Apogee altitude
548.623 km
Perigee altitude
546.364 km
Semi-major axis
6,925.63 km
Eccentricity
0.0001631
Inclination
53.0566°
RAAN
17.4555°
Arg. of periapsis
90.0196°
True anomaly
270.07921°
Mean anomaly
270.0979°
Eccentric anomaly
270.08856°
Mean motion
3.76577 °/min
BSTAR
-0.00012677
Orbital period
95.6 mins
Loading maneuver chart data...
Loading SW <> Apogee altitude chart data...
Loading historical data...
Loading historical data...
Loading historical data...
Loading historical data...
Loading historical data...
Loading historical data...
Loading historical data...

STARLINK-1363 Visibility forecast

Observer location: undefined°, undefined°

Span
Click to sort rows by Start time (UTC) header in descending order
Start Az.
Max El. time (UTC)
Max El. Az.
Max El.
End time (UTC)
End Az.
7 mins2025-05-09 18:40:41.458Z212.246° SW2025-05-09 18:44:41.458Z115.778° SE38.729°2025-05-09 18:47:41.458Z60.375° ENE
5 mins2025-05-09 20:21:41.458Z284.369° WNW2025-05-09 20:23:41.458Z322.351° NNW24.247°2025-05-09 20:26:41.458Z24.313° NE
6 mins2025-05-10 01:23:41.458Z326.103° NNW2025-05-10 01:25:41.458Z23.178° NE39.446°2025-05-10 01:29:41.458Z114.5° SE
4 mins2025-05-10 03:03:41.458Z259.033° W2025-05-10 03:04:41.458Z240.189° WSW18.879°2025-05-10 03:07:41.458Z188.186° SSW
|